logo tempoitalia

Diretta Meteo Nizhny Novgorod/Strigino, Russialunedì 31 agosto ore 08:00

Mappa
Sereno 14 °C Pioggia 24 Ore: T.min 12 T.max 22
Ponente Nord Km/h 7.2 Punto di rugiada: 12 °C Umidità: 87% Visibilità: 10 Km
Il sole sorge alle: 05:05 Il sole tramonta alle: 19:03
31 Agosto 2026 08:00 tempo osservato: Pioggia Pioggia 14 87 1019 vento: Nord N 7.2
31 Agosto 2026 07:30 tempo osservato: Pioggia Pioggia 13 93 1019 vento: Nord N 7.2
31 Agosto 2026 07:00 tempo osservato: Pioggia Pioggia 14 87 1020 vento: Nord N 7.2
31 Agosto 2026 06:30 tempo osservato: Pioggia Pioggia 13 93 1020 vento: Nord N 3.6
31 Agosto 2026 06:00 tempo osservato: Pioggia Pioggia 13 93 1020 vento: Nord N 3.6
31 Agosto 2026 05:30 tempo osservato: Pioggia Pioggia 14 82 1020 vento: Nord N 7.2
31 Agosto 2026 05:00 tempo osservato: Pioggia Pioggia 14 87 1020 vento: Nord S/SO 10.8
31 Agosto 2026 04:30 tempo osservato: Pioggia Pioggia 13 87 1020 vento: Nord SO 10.8
31 Agosto 2026 04:00 tempo osservato: Sereno Sereno 14 82 1020 vento: Nord S/SO 10.8
31 Agosto 2026 03:30 tempo osservato: Sereno Sereno 13 87 1020 vento: Nord SO 14.4
31 Agosto 2026 03:00 tempo osservato: Sereno Sereno 14 82 1020 vento: Nord S/SO 10.8
31 Agosto 2026 02:30 tempo osservato: Sereno Sereno 13 87 1020 vento: Nord S/SO 10.8
31 Agosto 2026 02:00 tempo osservato: Sereno Sereno 12 87 1020 vento: Nord S/SO 10.8
31 Agosto 2026 01:30 tempo osservato: Sereno Sereno 12 93 1020 vento: Nord N 7.2
31 Agosto 2026 01:00 tempo osservato: Sereno Sereno 13 87 1020 vento: Nord N 7.2
31 Agosto 2026 00:30 tempo osservato: Sereno Sereno 13 87 1020 vento: Nord N 7.2
31 Agosto 2026 00:00 tempo osservato: Sereno Sereno 13 93 1020 vento: Nord N 7.2
30 Agosto 2026 23:30 tempo osservato: Sereno Sereno 14 87 1020 vento: Nord N 7.2
30 Agosto 2026 23:00 tempo osservato: Sereno Sereno 15 82 1021 vento: Nord N 7.2
30 Agosto 2026 22:30 tempo osservato: Sereno Sereno 14 93 1021 vento: Nord N 3.6
30 Agosto 2026 22:00 tempo osservato: Sereno Sereno 14 93 1021 vento: Nord N 3.6
30 Agosto 2026 21:30 tempo osservato: Sereno Sereno 14 93 1020 vento: Nord N 3.6
30 Agosto 2026 21:00 tempo osservato: Sereno Sereno 15 93 1021 vento: Nord N 3.6
30 Agosto 2026 20:30 tempo osservato: Sereno Sereno 15 87 1021 vento: Nord N 3.6
30 Agosto 2026 20:00 tempo osservato: Sereno Sereno 15 93 1021 vento: Nord N 3.6
30 Agosto 2026 19:30 tempo osservato: Sereno Sereno 16 87 1021 vento: Nord N 3.6
30 Agosto 2026 19:00 tempo osservato: Sereno Sereno 16 87 1021 vento: Nord N 3.6
30 Agosto 2026 18:30 tempo osservato: Sereno Sereno 17 88 1021 vento: Nord N 3.6
30 Agosto 2026 18:00 tempo osservato: Sereno Sereno 18 77 1021 vento: Nord N 3.6
30 Agosto 2026 17:30 tempo osservato: Sereno Sereno 19 68 1021 vento: Nord N 7.2
30 Agosto 2026 17:00 tempo osservato: Sereno Sereno 19 68 1021 vento: Nord N 7.2
30 Agosto 2026 16:30 tempo osservato: Sereno Sereno 20 59 1021 vento: Nord N 7.2
30 Agosto 2026 16:00 tempo osservato: Sereno Sereno 21 49 1021 vento: Nord O/SO 10.8
30 Agosto 2026 15:30 tempo osservato: Sereno Sereno 21 49 1021 vento: Nord N 7.2
30 Agosto 2026 15:00 tempo osservato: Sereno Sereno 22 43 1022 vento: Nord N 7.2
30 Agosto 2026 14:30 tempo osservato: Nuvoloso Nuvoloso 21 52 1022 vento: Nord O 10.8
30 Agosto 2026 14:00 tempo osservato: Sereno Sereno 21 49 1022 vento: Nord N 7.2
30 Agosto 2026 13:30 tempo osservato: Nuvoloso Nuvoloso 21 49 1022 vento: Nord N 7.2
30 Agosto 2026 13:00 tempo osservato: Sereno Sereno 20 52 1023 vento: Nord N 7.2
30 Agosto 2026 12:30 tempo osservato: Sereno Sereno 20 49 1023 vento: Nord N 7.2
30 Agosto 2026 12:00 tempo osservato: Nuvoloso Nuvoloso 19 52 1023 vento: Nord S 10.8
30 Agosto 2026 11:30 tempo osservato: Sereno Sereno 19 55 1023 vento: Nord N 7.2
30 Agosto 2026 11:00 tempo osservato: Poco Nuvoloso Poco Nuvoloso 19 59 1023 vento: Nord N 7.2
30 Agosto 2026 10:30 tempo osservato: Sereno Sereno 18 63 1023 vento: Nord N 7.2
30 Agosto 2026 10:00 tempo osservato: Sereno Sereno 18 63 1024 vento: Nord N 3.6
30 Agosto 2026 09:30 tempo osservato: Sereno Sereno 17 67 1024 vento: Nord N 3.6
30 Agosto 2026 09:00 tempo osservato: Sereno Sereno 16 67 1024 vento: Nord N 3.6